Time,TemperatureF,DewpointF,PressureIn,WindDirection,WindDirectionDegrees,WindSpeedMPH,WindSpeedGustMPH,Humidity,HourlyPrecipIn,Conditions,Clouds,dailyrainin,SoftwareType,DateUTC
2013-05-19 00:06:00,60.2,59.0,26.13,SSE,150,0.0,-999.0,94,-99.99,,,0.00,weatherlink.com 1.10,2013-05-19 04:06:00,
2013-05-19 00:21:00,60.1,58.0,26.13,ESE,121,0.0,-999.0,94,-99.99,,,0.00,weatherlink.com 1.10,2013-05-19 04:21:00,
2013-05-19 00:36:00,60.2,59.0,26.13,ESE,119,0.0,-999.0,94,-99.99,,,0.00,weatherlink.com 1.10,2013-05-19 04:36:00,
2013-05-19 00:51:00,60.2,59.0,26.13,ESE,111,0.0,-999.0,95,-99.99,,,0.00,weatherlink.com 1.10,2013-05-19 04:51:00,
2013-05-19 01:06:00,60.2,59.0,26.13,NE,47,0.0,-999.0,95,-99.99,,,0.00,weatherlink.com 1.10,2013-05-19 05:06:00,
2013-05-19 01:21:00,60.3,59.0,26.13,NNE,17,0.0,-999.0,95,-99.99,,,0.00,weatherlink.com 1.10,2013-05-19 05:21:00,
2013-05-19 01:36:00,60.3,59.0,26.13,NNE,17,0.0,-999.0,95,-99.99,,,0.00,weatherlink.com 1.10,2013-05-19 05:36:00,
2013-05-19 01:51:00,60.3,59.0,26.13,NNW,338,0.0,-999.0,95,-99.99,,,0.00,weatherlink.com 1.10,2013-05-19 05:51:00,
2013-05-19 02:06:00,60.3,59.0,26.13,NNW,340,0.0,-999.0,96,-99.99,,,0.00,weatherlink.com 1.10,2013-05-19 06:06:00,
2013-05-19 02:21:00,60.2,59.0,26.13,ENE,74,0.0,-999.0,96,-99.99,,,0.00,weatherlink.com 1.10,2013-05-19 06:21:00,
2013-05-19 02:36:00,60.3,59.0,26.13,ENE,77,0.0,-999.0,96,-99.99,,,0.00,weatherlink.com 1.10,2013-05-19 06:36:00,
2013-05-19 02:51:00,60.2,59.0,26.13,NNW,346,0.0,-999.0,96,-99.99,,,0.00,weatherlink.com 1.10,2013-05-19 06:51:00,
2013-05-19 03:06:00,60.2,59.0,26.13,NNW,346,0.0,-999.0,97,-99.99,,,0.00,weatherlink.com 1.10,2013-05-19 07:06:00,
2013-05-19 03:21:00,60.2,59.0,26.13,NW,322,0.0,-999.0,97,-99.99,,,0.00,weatherlink.com 1.10,2013-05-19 07:21:00,
2013-05-19 03:36:00,60.2,59.0,26.13,NW,322,0.0,-999.0,97,-99.99,,,0.00,weatherlink.com 1.10,2013-05-19 07:36:00,
2013-05-19 03:51:00,60.2,59.0,26.13,NW,322,0.0,-999.0,97,-99.99,,,0.00,weatherlink.com 1.10,2013-05-19 07:51:00,
2013-05-19 04:06:00,60.2,59.0,26.13,NW,322,0.0,-999.0,97,-99.99,,,0.00,weatherlink.com 1.10,2013-05-19 08:06:00,
2013-05-19 04:21:00,60.2,59.0,26.13,NW,322,0.0,-999.0,97,-99.99,,,0.00,weatherlink.com 1.10,2013-05-19 08:21:00,
2013-05-19 04:36:00,60.3,60.0,26.13,NW,322,0.0,-999.0,97,-99.99,,,0.00,weatherlink.com 1.10,2013-05-19 08:36:00,
2013-05-19 04:51:00,60.3,60.0,26.13,NW,322,0.0,-999.0,97,-99.99,,,0.00,weatherlink.com 1.10,2013-05-19 08:51:00,
2013-05-19 05:06:00,60.3,60.0,26.13,NW,322,0.0,-999.0,97,-99.99,,,0.00,weatherlink.com 1.10,2013-05-19 09:06:00,
2013-05-19 05:21:00,60.4,60.0,26.13,NNW,344,0.0,-999.0,97,-99.99,,,0.00,weatherlink.com 1.10,2013-05-19 09:21:00,
2013-05-19 05:36:00,60.5,60.0,26.13,NNW,344,0.0,-999.0,97,-99.99,,,0.00,weatherlink.com 1.10,2013-05-19 09:36:00,
2013-05-19 05:51:00,60.5,60.0,26.13,NNW,345,0.0,-999.0,97,-99.99,,,0.00,weatherlink.com 1.10,2013-05-19 09:51:00,
2013-05-19 06:06:00,60.6,60.0,26.13,ENE,62,0.0,-999.0,97,-99.99,,,0.00,weatherlink.com 1.10,2013-05-19 10:06:00,
2013-05-19 06:21:00,60.7,60.0,26.13,NW,310,0.0,-999.0,97,-99.99,,,0.00,weatherlink.com 1.10,2013-05-19 10:21:00,
2013-05-19 06:36:00,60.8,60.0,26.13,NW,310,0.0,-999.0,98,-99.99,,,0.00,weatherlink.com 1.10,2013-05-19 10:36:00,
2013-05-19 06:51:00,60.9,60.0,26.13,NW,310,0.0,-999.0,98,-99.99,,,0.00,weatherlink.com 1.10,2013-05-19 10:51:00,
2013-05-19 07:06:00,61.0,61.0,26.13,West,277,0.0,-999.0,98,-99.99,,,0.00,weatherlink.com 1.10,2013-05-19 11:06:00,
2013-05-19 07:21:00,61.1,61.0,26.13,West,277,0.0,-999.0,98,-99.99,,,0.00,weatherlink.com 1.10,2013-05-19 11:21:00,
2013-05-19 07:36:00,61.3,61.0,26.13,South,191,0.0,-999.0,98,-99.99,,,0.00,weatherlink.com 1.10,2013-05-19 11:36:00,
2013-05-19 07:51:00,61.5,61.0,26.13,SSW,192,0.0,-999.0,98,-99.99,,,0.00,weatherlink.com 1.10,2013-05-19 11:51:00,
2013-05-19 08:06:00,61.7,61.0,26.13,ENE,67,0.0,-999.0,98,-99.99,,,0.00,weatherlink.com 1.10,2013-05-19 12:06:00,
2013-05-19 08:21:00,61.8,61.0,26.13,ENE,62,0.0,-999.0,98,-99.99,,,0.00,weatherlink.com 1.10,2013-05-19 12:21:00,
2013-05-19 08:36:00,62.0,62.0,26.13,West,279,0.0,-999.0,98,-99.99,,,0.00,weatherlink.com 1.10,2013-05-19 12:36:00,
2013-05-19 08:52:00,62.1,62.0,0.00,SW,226,0.0,-999.0,98,-99.99,,,0.00,weatherlink.com 1.10,2013-05-19 12:52:00,
2013-05-19 09:07:00,62.3,62.0,0.00,SW,226,0.0,-999.0,98,-99.99,,,0.00,weatherlink.com 1.10,2013-05-19 13:07:00,
2013-05-19 09:22:00,62.5,62.0,0.00,SW,225,0.0,-999.0,98,-99.99,,,0.01,weatherlink.com 1.10,2013-05-19 13:22:00,
2013-05-19 09:37:00,62.7,62.0,0.00,WSW,254,0.0,-999.0,98,-99.99,,,0.01,weatherlink.com 1.10,2013-05-19 13:37:00,
2013-05-19 09:52:00,62.9,62.0,0.00,West,269,0.0,-999.0,98,-99.99,,,0.01,weatherlink.com 1.10,2013-05-19 13:52:00,
2013-05-19 10:07:00,63.1,63.0,0.00,WNW,286,0.0,-999.0,98,-99.99,,,0.01,weatherlink.com 1.10,2013-05-19 14:07:00,
2013-05-19 10:22:00,63.5,63.0,0.00,ESE,109,0.0,-999.0,99,-99.99,,,0.01,weatherlink.com 1.10,2013-05-19 14:22:00,
2013-05-19 10:37:00,64.4,64.0,0.00,ENE,64,1.0,-999.0,99,-99.99,,,0.01,weatherlink.com 1.10,2013-05-19 14:37:00,
2013-05-19 10:52:00,64.4,64.0,0.00,NNW,339,0.0,-999.0,98,-99.99,,,0.01,weatherlink.com 1.10,2013-05-19 14:52:00,
2013-05-19 11:07:00,64.5,64.0,0.00,SW,224,0.0,-999.0,98,-99.99,,,0.01,weatherlink.com 1.10,2013-05-19 15:07:00,
2013-05-19 11:22:00,64.7,64.0,0.00,SW,222,0.0,-999.0,98,-99.99,,,0.01,weatherlink.com 1.10,2013-05-19 15:22:00,
2013-05-19 11:37:00,65.1,65.0,0.00,South,178,0.0,-999.0,98,-99.99,,,0.01,weatherlink.com 1.10,2013-05-19 15:37:00,
2013-05-19 11:52:00,65.6,65.0,0.00,SSE,168,0.0,-999.0,98,-99.99,,,0.01,weatherlink.com 1.10,2013-05-19 15:52:00,
2013-05-19 12:07:00,66.4,66.0,0.00,SSE,148,0.0,-999.0,97,-99.99,,,0.01,weatherlink.com 1.10,2013-05-19 16:07:00,
2013-05-19 12:22:00,67.0,66.0,0.00,SE,128,0.0,-999.0,96,-99.99,,,0.01,weatherlink.com 1.10,2013-05-19 16:22:00,
2013-05-19 12:37:00,67.2,66.0,0.00,ENE,72,0.0,-999.0,95,-99.99,,,0.01,weatherlink.com 1.10,2013-05-19 16:37:00,
2013-05-19 12:52:00,67.4,66.0,0.00,WNW,290,0.0,-999.0,94,-99.99,,,0.01,weatherlink.com 1.10,2013-05-19 16:52:00,
2013-05-19 13:04:00,67.8,66.0,16.91,WNW,290,0.0,0.0,94,0.00,,,0.01,Wunderground v.1.15,2013-05-19 17:04:00,
2013-05-19 13:10:00,67.9,66.1,16.91,East,101,0.0,0.0,94,0.00,,,0.01,Wunderground v.1.15,2013-05-19 17:10:00,
2013-05-19 13:19:00,68.4,66.6,16.91,East,90,0.0,0.0,94,0.00,,,0.01,Wunderground v.1.15,2013-05-19 17:19:00,
2013-05-19 13:29:00,69.0,66.9,16.91,East,90,0.0,0.0,93,0.00,,,0.01,Wunderground v.1.15,2013-05-19 17:29:00,
2013-05-19 13:34:00,69.3,66.9,16.91,ENE,67,0.0,0.0,92,0.00,,,0.01,Wunderground v.1.15,2013-05-19 17:34:00,
2013-05-19 13:39:00,69.6,66.9,16.91,ENE,69,0.0,0.0,91,0.00,,,0.01,Wunderground v.1.15,2013-05-19 17:39:00,
2013-05-19 13:45:00,69.9,67.2,16.91,ENE,69,0.0,0.0,91,0.00,,,0.01,Wunderground v.1.15,2013-05-19 17:45:00,
2013-05-19 13:50:00,70.1,67.0,16.91,ENE,72,0.0,0.0,90,0.00,,,0.01,Wunderground v.1.15,2013-05-19 17:50:00,
2013-05-19 13:59:00,70.4,67.3,16.91,ENE,72,0.0,0.0,90,0.00,,,0.01,Wunderground v.1.15,2013-05-19 17:59:00,
2013-05-19 14:04:00,70.7,67.6,16.91,ENE,72,0.0,0.0,90,0.00,,,0.01,Wunderground v.1.15,2013-05-19 18:04:00,
2013-05-19 14:10:00,70.9,67.5,16.91,NE,42,0.0,0.0,89,0.00,,,0.01,Wunderground v.1.15,2013-05-19 18:10:00,
2013-05-19 14:15:00,70.9,67.5,16.91,NE,42,0.0,0.0,89,0.00,,,0.01,Wunderground v.1.15,2013-05-19 18:15:00,
2013-05-19 14:22:00,71.1,67.0,0.00,ESE,106,0.0,-999.0,88,-99.99,,,0.01,weatherlink.com 1.10,2013-05-19 18:22:00,
2013-05-19 14:30:00,71.3,67.9,16.91,ESE,106,0.0,0.0,89,0.00,,,0.01,Wunderground v.1.15,2013-05-19 18:30:00,
2013-05-19 14:38:00,71.9,68.0,0.00,ESE,106,0.0,-999.0,88,-99.99,,,0.01,weatherlink.com 1.10,2013-05-19 18:38:00,
2013-05-19 14:45:00,72.3,68.5,16.91,East,85,0.0,0.0,88,0.00,,,0.01,Wunderground v.1.15,2013-05-19 18:45:00,
2013-05-19 14:52:00,72.5,68.0,0.00,NW,323,1.0,-999.0,85,-99.99,,,0.01,weatherlink.com 1.10,2013-05-19 18:52:00,
2013-05-19 14:59:00,72.7,67.6,16.91,NW,326,0.0,0.0,84,0.00,,,0.01,Wunderground v.1.15,2013-05-19 18:59:00,
2013-05-19 15:04:00,72.9,67.8,16.91,SE,128,0.0,0.0,84,0.00,,,0.01,Wunderground v.1.15,2013-05-19 19:04:00,
2013-05-19 15:23:00,73.8,68.0,0.00,ENE,75,0.0,-999.0,82,-99.99,,,0.01,weatherlink.com 1.10,2013-05-19 19:23:00,
2013-05-19 15:38:00,73.8,68.0,0.00,ESE,107,0.0,-999.0,83,-99.99,,,0.01,weatherlink.com 1.10,2013-05-19 19:38:00,
2013-05-19 15:50:00,74.2,68.0,16.91,NNW,327,0.0,0.0,81,0.00,,,0.01,Wunderground v.1.15,2013-05-19 19:50:00,
2013-05-19 15:59:00,74.7,68.5,16.91,SE,129,0.0,0.0,81,0.00,,,0.01,Wunderground v.1.15,2013-05-19 19:59:00,
2013-05-19 16:04:00,75.0,68.0,16.91,East,96,0.0,0.0,79,0.00,,,0.01,Wunderground v.1.15,2013-05-19 20:04:00,
2013-05-19 16:09:00,75.0,68.4,16.91,NNE,22,0.0,0.0,80,0.00,,,0.01,Wunderground v.1.15,2013-05-19 20:09:00,
2013-05-19 16:14:00,75.1,67.8,16.91,ESE,111,0.0,2.0,78,0.00,,,0.01,Wunderground v.1.15,2013-05-19 20:14:00,
2013-05-19 16:20:00,75.2,68.2,16.91,NNE,22,0.0,0.0,79,0.00,,,0.01,Wunderground v.1.15,2013-05-19 20:20:00,
2013-05-19 16:29:00,75.4,68.4,16.91,NNE,23,0.0,0.0,79,0.00,,,0.01,Wunderground v.1.15,2013-05-19 20:29:00,
2013-05-19 16:34:00,75.4,68.8,16.91,NNE,23,0.0,0.0,80,0.00,,,0.01,Wunderground v.1.15,2013-05-19 20:34:00,
2013-05-19 16:53:00,76.3,69.0,0.00,ESE,111,1.0,-999.0,77,-99.99,,,0.01,weatherlink.com 1.10,2013-05-19 20:53:00,
2013-05-19 17:08:00,77.0,69.0,0.00,WNW,303,0.0,-999.0,76,-99.99,,,0.01,weatherlink.com 1.10,2013-05-19 21:08:00,
2013-05-19 17:23:00,76.2,69.0,0.00,SE,142,0.0,-999.0,78,-99.99,,,0.01,weatherlink.com 1.10,2013-05-19 21:23:00,
2013-05-19 17:38:00,75.5,69.0,0.00,SE,133,0.0,-999.0,80,-99.99,,,0.01,weatherlink.com 1.10,2013-05-19 21:38:00,
2013-05-19 17:53:00,75.1,69.0,0.00,ESE,117,0.0,-999.0,81,-99.99,,,0.01,weatherlink.com 1.10,2013-05-19 21:53:00,
2013-05-19 18:08:00,74.8,69.0,0.00,East,98,0.0,-999.0,82,-99.99,,,0.01,weatherlink.com 1.10,2013-05-19 22:08:00,
2013-05-19 18:14:00,74.7,68.8,16.91,ENE,71,0.0,0.0,82,0.00,,,0.01,Wunderground v.1.15,2013-05-19 22:14:00,
2013-05-19 18:20:00,74.4,68.5,16.91,NNW,335,0.0,0.0,82,0.00,,,0.01,Wunderground v.1.15,2013-05-19 22:20:00,
2013-05-19 18:29:00,74.2,69.1,16.91,NNW,339,0.0,0.0,84,0.00,,,0.01,Wunderground v.1.15,2013-05-19 22:29:00,
2013-05-19 18:34:00,74.0,68.9,16.91,East,87,0.0,0.0,84,0.00,,,0.01,Wunderground v.1.15,2013-05-19 22:34:00,
2013-05-19 18:39:00,74.0,68.9,16.91,ENE,60,0.0,0.0,84,0.00,,,0.01,Wunderground v.1.15,2013-05-19 22:39:00,
2013-05-19 18:45:00,73.8,68.7,16.91,SE,140,0.0,0.0,84,0.00,,,0.01,Wunderground v.1.15,2013-05-19 22:45:00,
2013-05-19 18:52:00,73.6,69.0,0.00,SE,140,0.0,-999.0,84,-99.99,,,0.01,weatherlink.com 1.10,2013-05-19 22:52:00,
2013-05-19 19:00:00,73.5,68.4,16.91,ESE,102,0.0,0.0,84,0.00,,,0.01,Wunderground v.1.15,2013-05-19 23:00:00,
2013-05-19 19:08:00,73.3,69.0,0.00,ENE,68,0.0,-999.0,85,-99.99,,,0.01,weatherlink.com 1.10,2013-05-19 23:08:00,
2013-05-19 19:14:00,73.1,68.3,16.91,SE,126,0.0,0.0,85,0.00,,,0.01,Wunderground v.1.15,2013-05-19 23:14:00,
2013-05-19 19:19:00,73.0,68.6,16.91,WNW,286,0.0,0.0,86,0.00,,,0.01,Wunderground v.1.15,2013-05-19 23:19:00,
2013-05-19 19:25:00,72.9,68.5,16.91,WSW,256,0.0,0.0,86,0.00,,,0.01,Wunderground v.1.15,2013-05-19 23:25:00,
2013-05-19 19:38:00,72.7,69.0,0.00,ESE,110,0.0,-999.0,87,-99.99,,,0.01,weatherlink.com 1.10,2013-05-19 23:38:00,
2013-05-19 19:53:00,72.5,69.0,0.00,ESE,110,0.0,-999.0,87,-99.99,,,0.01,weatherlink.com 1.10,2013-05-19 23:53:00,
2013-05-19 20:08:00,72.1,68.0,0.00,SE,127,0.0,-999.0,88,-99.99,,,0.01,weatherlink.com 1.10,2013-05-20 00:08:00,
2013-05-19 20:22:00,71.5,68.0,0.00,SSW,198,0.0,-999.0,89,-99.99,,,0.01,weatherlink.com 1.10,2013-05-20 00:22:00,
2013-05-19 20:38:00,71.0,68.0,0.00,SW,225,0.0,-999.0,91,-99.99,,,0.01,weatherlink.com 1.10,2013-05-20 00:38:00,
2013-05-19 20:53:00,70.5,68.0,0.00,SW,225,0.0,-999.0,91,-99.99,,,0.01,weatherlink.com 1.10,2013-05-20 00:53:00,
2013-05-19 21:09:00,70.3,68.0,0.00,SW,225,0.0,-999.0,91,-99.99,,,0.01,weatherlink.com 1.10,2013-05-20 01:09:00,
2013-05-19 21:23:00,70.2,68.0,0.00,SW,225,0.0,-999.0,91,-99.99,,,0.01,weatherlink.com 1.10,2013-05-20 01:23:00,
2013-05-19 21:38:00,70.0,67.0,0.00,South,188,0.0,-999.0,91,-99.99,,,0.01,weatherlink.com 1.10,2013-05-20 01:38:00,
2013-05-19 21:53:00,69.8,67.0,0.00,South,187,0.0,-999.0,91,-99.99,,,0.01,weatherlink.com 1.10,2013-05-20 01:53:00,
2013-05-19 22:08:00,69.6,67.0,0.00,SSE,155,0.0,-999.0,91,-99.99,,,0.01,weatherlink.com 1.10,2013-05-20 02:08:00,
2013-05-19 22:23:00,69.4,67.0,0.00,SSE,155,0.0,-999.0,91,-99.99,,,0.01,weatherlink.com 1.10,2013-05-20 02:23:00,
2013-05-19 22:38:00,69.2,67.0,0.00,SSE,150,0.0,-999.0,91,-99.99,,,0.01,weatherlink.com 1.10,2013-05-20 02:38:00,
2013-05-19 22:53:00,69.1,66.0,0.00,SSE,150,0.0,-999.0,91,-99.99,,,0.01,weatherlink.com 1.10,2013-05-20 02:53:00,
2013-05-19 23:08:00,69.0,66.0,0.00,SSE,150,0.0,-999.0,91,-99.99,,,0.01,weatherlink.com 1.10,2013-05-20 03:08:00,
2013-05-19 23:23:00,68.8,66.0,0.00,SSE,150,0.0,-999.0,91,-99.99,,,0.01,weatherlink.com 1.10,2013-05-20 03:23:00,
2013-05-19 23:38:00,68.7,66.0,0.00,SSE,150,0.0,-999.0,92,-99.99,,,0.01,weatherlink.com 1.10,2013-05-20 03:38:00,
2013-05-19 23:53:00,68.6,66.0,0.00,SSE,150,0.0,-999.0,92,-99.99,,,0.01,weatherlink.com 1.10,2013-05-20 03:53:00,